User: anonymous   Login
Location: Guayaquil
(2.1667°S, 79.9000°W)
Time: 23:02:15
(UTC-05:00)
Language:

DNEPR OBJECT AB - Orbit

View from above orbital plane
View from above orbital plane
View from above satellite
View from above satellite

Ground track
Ground track

The orbit data is extracted from the following two-line orbital elements,

1 39441U 13066AB  18112.59064583 +.00000197 +00000-0 +35018-4 0  9998
2 39441 097.6048 129.3885 0082517 022.0269 338.4454 14.74759411236428
Epoch (UTC): 22 April 2018 14:10:31
Eccentricity: 0.0082517
inclination: 97.6048°
perigee height: 588 km
apogee height: 704 km
right ascension of ascending node: 129.3885°
argument of perigee: 22.0269°
revolutions per day: 14.74759411
mean anomaly at epoch: 338.4454°
orbit number at epoch: 23642

The dashed part of the orbit path shows where the satellite is in the earth's shadow,  

DLR